[[{"header":{"parameterUnit":"m.s-1","parameterCategory":1,"la1":30.2991,"la2":30.254,"lo1":-89.0895,"lo2":-89.0444,"dy":0.0017,"dx":0.0017,"nx":28,"ny":28,"refTime":"2025-03-08T09:00:00:Z","depth":0,"parameterNumber":2,"parameterNumberName":"U-component_of_WINDS"},"data":[0,0,0,0,0,0,0,0,0,0,0,0,0,0,0,0,0,0,0,0,0,0,0,0,0,0,0,0,0,0,0,0,0,0,0,0,0,0,0,0,0,0,0,0,0,0,0,0,0,0,0,0,0,0,0,0,0,0,2.8058,2.8058,0,2.8005,2.8005,2.8004,2.7905,2.7903,2.7901,2.7899,2.7848,2.7848,2.7849,0,0,0,0,0,0,0,0,0,0,0,0,0,2.8079,2.8079,2.8059,2.8058,2.8057,2.8005,2.8005,2.8004,2.7905,2.7903,2.79,2.7898,2.7848,2.7848,2.7849,0,0,0,0,0,0,0,0,0,0,0,0,0,2.8053,2.8079,2.8059,2.8002,2.7996,2.8006,2.8005,2.8004,2.7906,2.7903,2.79,2.7897,2.7847,2.7848,2.7849,2.7911,0,0,2.7851,2.7851,0,0,0,0,0,0,0,0,2.8054,2.8052,2.8011,2.8005,2.7999,2.7959,2.7993,2.7973,2.7906,2.794,2.7899,2.7896,2.7887,2.7884,2.7881,2.7908,2.7906,2.7851,2.7851,2.7851,2.7852,0,0,0,0,0,0,0,2.8056,2.8054,2.8037,2.801,2.8003,2.798,2.7973,2.7989,2.7931,2.7937,2.7929,2.7924,2.7884,2.788,2.7879,2.7905,2.7851,2.7851,2.7852,2.7852,2.7984,2.7987,0,0,0,0,0,0,2.8066,2.8056,2.8039,2.8036,2.802,2.7982,2.7974,2.7975,2.793,2.792,2.7927,2.792,2.7881,2.7878,2.7877,2.7948,2.7851,2.7852,2.7852,2.7981,2.7985,2.7988,0,0,0,0,0,0,2.8067,2.8065,2.8041,2.8044,2.8039,2.7985,2.7986,2.7975,2.7972,2.7923,2.7912,2.7934,2.7878,2.7876,2.7903,2.7945,2.7852,2.7853,2.7977,2.7982,2.7987,2.8091,0,0,0,0,0,0,2.8068,2.8066,2.8088,2.8045,2.8039,2.8068,2.7988,2.7976,2.7973,2.7963,2.7927,2.7918,2.7876,2.7903,2.7904,2.7944,2.7853,2.7973,2.798,2.7985,2.8084,2.8099,2.8112,0,0,0,0,0,2.8069,2.8119,2.8089,2.8088,2.8065,2.807,2.8067,2.8017,2.7977,2.7999,2.7968,2.7919,2.794,2.7907,2.7907,2.7948,2.7971,2.7978,2.7985,2.8077,2.8096,2.8111,0,0,0,0,0,0,2.8169,2.8113,2.8079,2.8117,2.8099,2.8053,2.808,2.8038,2.8032,2.8023,2.7962,2.7955,2.7991,2.7972,2.7936,2.8007,2.7948,2.7955,2.8018,2.8035,2.8049,2.8053,2.7854,0,0,0,0,0,2.8195,2.8203,2.8154,2.8192,2.8185,2.8135,2.8135,2.8098,2.8077,2.807,2.804,2.8023,2.8026,2.803,2.8029,2.808,2.8072,2.8109,2.8123,2.8135,2.8142,2.817,2.8187,2.8011,2.8011,2.8011,0,0,2.825,2.822,2.8229,2.8212,2.8193,2.8205,2.8129,2.8143,2.8151,2.8072,2.8096,2.8075,2.8052,2.8093,2.8109,2.8078,2.8189,2.8144,2.8153,2.8154,2.8179,2.8196,2.8211,2.8016,2.8015,2.8014,0,0,2.8355,2.8333,2.8363,2.8347,2.8321,2.8287,2.8295,2.8256,2.8239,2.8262,2.8204,2.8214,2.822,2.8207,2.8201,2.8305,2.8261,2.8307,2.838,2.8408,2.8422,2.8434,2.8473,2.8488,2.8314,2.8315,2.8315,0,2.8427,2.844,2.8385,2.8403,2.8399,2.8328,2.836,2.8347,2.8323,2.8322,2.8287,2.8295,2.8274,2.8312,2.8338,2.8335,2.8343,2.8311,2.8424,2.8436,2.8446,2.8483,2.8498,2.832,2.832,2.8319,2.8319,0,2.8531,2.8541,2.8569,2.8547,2.8546,2.8571,2.8522,2.8527,2.8491,2.8462,2.8489,2.8462,2.8457,2.8463,2.8427,2.8496,2.8478,2.8435,2.8374,2.847,2.8504,2.8517,2.8329,2.8327,2.8325,2.8323,0,0,2.8696,2.8645,2.8657,2.8647,2.8614,2.8622,2.8645,2.8639,2.8646,2.8633,2.8652,2.866,2.8621,2.8615,2.8578,2.8602,2.869,2.8556,2.8555,2.8583,2.8766,2.88,2.8817,2.866,2.8662,2.8664,2.8769,0,2.8796,2.8831,2.8784,2.8831,2.8842,2.8776,2.8796,2.878,2.8754,2.876,2.8732,2.8739,2.8685,2.8682,2.8703,2.8674,2.8726,2.8666,2.8679,2.8681,2.8688,2.8834,2.8869,2.8969,2.8781,2.8784,2.8785,0,2.8916,2.8908,2.8957,2.8923,2.8926,2.8945,2.8938,2.8944,2.8925,2.8904,2.8899,2.8855,2.8878,2.8819,2.8851,2.8811,2.8814,2.8802,2.8804,2.8804,2.8739,2.884,2.8999,2.9015,2.8805,2.8803,2.8802,0,2.9035,2.9036,2.9066,2.906,2.9021,2.9037,2.9022,2.8999,2.9,2.8994,2.8994,2.8991,2.8989,2.8989,2.8947,2.8907,2.8985,2.8922,2.897,2.8972,2.899,2.899,2.9154,2.899,2.899,2.899,2.899,0,2.9151,2.9184,2.9119,2.9138,2.9173,2.912,2.9157,2.9135,2.9116,2.9131,2.9074,2.9089,2.9031,2.9041,2.9008,2.9041,2.9041,2.9027,2.9018,2.9032,2.9034,2.9034,2.9026,2.8994,2.8993,2.8992,2.8991,0,2.9289,2.9247,2.9276,2.9237,2.9228,2.9257,2.9224,2.9241,2.9212,2.9232,2.9233,2.9188,2.9197,2.9155,2.9156,2.9134,2.9184,2.9163,2.9191,2.9185,2.9237,2.9233,2.9407,2.9428,2.925,2.9252,2.9254,0,2.9367,2.9391,2.9355,2.9361,2.9348,2.9358,2.9358,2.9307,2.931,2.9292,2.9312,2.9316,2.9316,2.9334,2.9302,2.9304,2.9283,2.9344,2.9283,2.9298,2.9286,2.9286,2.9289,2.9357,2.9359,2.9361,2.9363,0,2.951,2.9488,2.9491,2.9487,2.9489,2.9484,2.9475,2.9483,2.9428,2.9435,2.9443,2.9444,2.9446,2.9452,2.9447,2.9433,2.939,2.9382,2.9394,2.9409,2.9425,2.9419,2.9227,2.9378,2.9377,2.9376,2.9375,2.9374,2.9621,2.964,2.9619,2.9624,2.9612,2.9606,2.962,2.9594,2.9599,2.9596,2.9566,2.9581,2.9564,2.9553,2.9544,2.9556,2.9527,2.9544,2.9548,2.9553,2.9563,2.9423,2.9555,2.9554,2.9554,2.9554,2.9553,0,2.9762,2.9746,2.9751,2.9741,2.9746,2.9704,2.9693,2.97,2.9714,2.9701,2.9703,2.9714,2.972,2.969,2.9692,2.9708,2.9689,2.9711,2.9709,2.9707,2.9588,2.9578,2.9726,2.9726,2.9726,2.9726,2.9726,2.9726,2.9836,2.9867,2.9844,2.9869,2.9852,2.9866,2.9864,2.9858,2.9848,2.9863,2.9867,2.9847,2.9829,2.9829,2.9834,2.9825,2.9829,2.9858,2.9843,2.9732,2.9715,2.9699,2.969,2.9859,2.986,2.9962,2.9963,2.9963]},{"header":{"parameterUnit":"m.s-1","parameterCategory":1,"la1":30.2991,"la2":30.254,"lo1":-89.0895,"lo2":-89.0444,"dy":0.0017,"dx":0.0017,"nx":28,"ny":28,"refTime":"2025-03-08T09:00:00:Z","depth":0,"parameterNumber":3,"parameterNumberName":"V-component_of_WINDS"},"data":[0,0,0,0,0,0,0,0,0,0,0,0,0,0,0,0,0,0,0,0,0,0,0,0,0,0,0,0,0,0,0,0,0,0,0,0,0,0,0,0,0,0,0,0,0,0,0,0,0,0,0,0,0,0,0,0,0,0,2.1717,2.1718,0,2.1787,2.1788,2.1789,2.1824,2.1824,2.1824,2.1824,2.1892,2.1894,2.1895,0,0,0,0,0,0,0,0,0,0,0,0,0,2.161,2.1611,2.1717,2.1718,2.1719,2.1787,2.1788,2.1789,2.1824,2.1824,2.1824,2.1824,2.1891,2.1893,2.1896,0,0,0,0,0,0,0,0,0,0,0,0,0,2.1665,2.1612,2.1717,2.1745,2.1748,2.1787,2.1788,2.1789,2.1824,2.1824,2.1824,2.1824,2.1891,2.1893,2.1896,2.1912,0,0,2.1904,2.1905,0,0,0,0,0,0,0,0,2.1662,2.1669,2.174,2.1743,2.1746,2.1797,2.1775,2.183,2.1824,2.1795,2.1824,2.1824,2.186,2.1865,2.1878,2.1915,2.1918,2.1904,2.1906,2.1907,2.1908,0,0,0,0,0,0,0,2.1658,2.1667,2.1745,2.1741,2.1745,2.1752,2.176,2.1786,2.1826,2.1797,2.18,2.1808,2.1862,2.1876,2.188,2.1919,2.1904,2.1907,2.1908,2.1909,2.1973,2.1973,0,0,0,0,0,0,2.1651,2.1663,2.1743,2.1747,2.1704,2.1754,2.1763,2.1781,2.1826,2.1833,2.1808,2.1809,2.1871,2.1877,2.1883,2.1905,2.1907,2.191,2.1911,2.1973,2.1973,2.1973,0,0,0,0,0,0,2.1648,2.1657,2.174,2.1706,2.1717,2.1756,2.1775,2.1782,2.1796,2.1834,2.1841,2.1815,2.1871,2.1879,2.1905,2.1908,2.1911,2.1913,2.1973,2.1973,2.1973,2.1949,0,0,0,0,0,0,2.1645,2.1656,2.1664,2.1706,2.1719,2.1762,2.1776,2.1783,2.1801,2.1803,2.1843,2.1849,2.1872,2.1901,2.1907,2.1911,2.1915,2.1973,2.1973,2.1973,2.195,2.1949,2.1947,0,0,0,0,0,2.1641,2.1653,2.1664,2.1673,2.1729,2.1762,2.1769,2.1796,2.1801,2.1808,2.1833,2.1848,2.1906,2.1903,2.1911,2.1916,2.1973,2.1973,2.1973,2.1951,2.1949,2.1947,0,0,0,0,0,0,2.1609,2.1659,2.1671,2.1698,2.1726,2.1768,2.1778,2.1793,2.1819,2.182,2.1852,2.186,2.1883,2.1902,2.1898,2.1934,2.1941,2.1943,2.1921,2.192,2.1918,2.1913,2.1918,0,0,0,0,0,2.1605,2.1629,2.1671,2.169,2.1704,2.1738,2.1754,2.1772,2.1802,2.1813,2.184,2.1866,2.1891,2.1906,2.1931,2.1953,2.1962,2.196,2.1959,2.1957,2.1959,2.1972,2.1971,2.1974,2.1974,2.1974,0,0,2.1597,2.1627,2.164,2.1685,2.1708,2.1731,2.1748,2.1771,2.1788,2.1816,2.1843,2.1863,2.1895,2.1919,2.1931,2.1936,2.196,2.1958,2.1956,2.1958,2.1972,2.1971,2.1971,2.1974,2.1974,2.1974,0,0,2.1594,2.162,2.1639,2.1662,2.1698,2.1722,2.1726,2.1766,2.1781,2.1809,2.183,2.185,2.1892,2.1914,2.193,2.1937,2.1951,2.1943,2.1937,2.1949,2.1949,2.1949,2.1951,2.1951,2.1944,2.1944,2.1944,0,2.1579,2.1616,2.1646,2.1669,2.1688,2.1715,2.1734,2.1755,2.1797,2.1809,2.1813,2.1867,2.189,2.192,2.1921,2.1934,2.1939,2.1939,2.1947,2.1947,2.1947,2.195,2.195,2.1943,2.1943,2.1944,2.1944,0,2.1596,2.1621,2.1632,2.1673,2.1693,2.1713,2.1746,2.1762,2.1779,2.1801,2.1829,2.1858,2.1889,2.1898,2.1914,2.193,2.1931,2.1941,2.1948,2.1945,2.1948,2.1949,2.1942,2.1942,2.1942,2.1943,0,0,2.1574,2.1633,2.1636,2.1655,2.1698,2.1717,2.1739,2.1771,2.1784,2.1811,2.183,2.1865,2.1874,2.1893,2.1912,2.1923,2.1926,2.1931,2.1932,2.1929,2.1945,2.1938,2.1938,2.1936,2.1936,2.1936,2.1942,0,2.1577,2.1619,2.1647,2.1677,2.1701,2.1728,2.1747,2.1774,2.1795,2.1817,2.184,2.1865,2.1875,2.1887,2.1899,2.1923,2.1929,2.1923,2.1952,2.1953,2.1944,2.194,2.1932,2.1937,2.1944,2.1944,2.1944,0,2.1586,2.1615,2.1648,2.1688,2.1699,2.1716,2.1748,2.1769,2.18,2.1815,2.1836,2.1856,2.1879,2.1884,2.1916,2.1911,2.1925,2.1938,2.1939,2.1943,2.1948,2.1943,2.1939,2.1939,2.1946,2.1946,2.1946,0,2.1567,2.1614,2.164,2.1656,2.1703,2.1714,2.1734,2.1766,2.1783,2.1811,2.1822,2.1851,2.1867,2.1888,2.1915,2.1916,2.1944,2.1951,2.1956,2.1955,2.196,2.196,2.1958,2.1969,2.1969,2.1969,2.1969,0,2.1568,2.1587,2.1633,2.1648,2.1671,2.1702,2.1723,2.1745,2.1773,2.1793,2.1817,2.1835,2.1869,2.189,2.1911,2.1934,2.1941,2.1953,2.1958,2.1951,2.1949,2.196,2.196,2.1969,2.1969,2.1969,2.1969,0,2.155,2.1582,2.1612,2.1655,2.1666,2.1681,2.1717,2.1733,2.1756,2.1781,2.1788,2.1824,2.1851,2.1879,2.1915,2.1929,2.1951,2.1959,2.1941,2.1944,2.1947,2.1946,2.1952,2.1954,2.1964,2.1964,2.1964,0,2.1549,2.1564,2.161,2.1626,2.1645,2.167,2.1689,2.1721,2.1739,2.1776,2.1787,2.1816,2.1841,2.1883,2.1911,2.1939,2.1947,2.1947,2.1951,2.1943,2.1947,2.1946,2.1947,2.1945,2.1945,2.1945,2.1945,0,2.1542,2.1557,2.1584,2.1616,2.1638,2.1664,2.1692,2.1703,2.174,2.1758,2.1787,2.1807,2.1845,2.1873,2.1904,2.1923,2.194,2.1943,2.1946,2.1939,2.1928,2.1934,2.1938,2.1943,2.1943,2.1943,2.1943,2.1943,2.1533,2.1548,2.1583,2.1611,2.1636,2.1661,2.1678,2.1704,2.1729,2.1764,2.178,2.1809,2.184,2.1884,2.1903,2.1925,2.1929,2.1933,2.1934,2.1934,2.1933,2.1925,2.193,2.193,2.193,2.1931,2.1931,0,2.1527,2.1551,2.1578,2.1616,2.1639,2.1654,2.1685,2.1702,2.1728,2.1756,2.1781,2.1814,2.1842,2.1872,2.1902,2.1913,2.1922,2.192,2.1919,2.1924,2.1926,2.1921,2.1913,2.1913,2.1913,2.1913,2.1913,2.1913,2.1527,2.1554,2.1574,2.1613,2.1636,2.1666,2.1682,2.1705,2.1728,2.1764,2.1788,2.1809,2.1838,2.187,2.1896,2.1904,2.1913,2.191,2.192,2.1922,2.1923,2.1925,2.192,2.1911,2.1911,2.1915,2.1915,2.1915]}]]